VLG6LF LPPT-LEBL

Flight info

Callsign VLG6LF
Flight time 1h 19m
Altitude 34000
Route ORVED DCT UREDI DCT DIPOL DCT RBO DCT PINAR DCT SEGRE DCT BRITO DCT PISUS DCT PONEN T600 CASPE
Aircraft A321/M-SDE3FGHIRWY/LB1

Departure

Time 2026-05-07 00:57
Airport Lisbon Humberto Delgado Airport (LPPT)

Arrival

Time 2026-05-07 02:16
Airport Josep Tarradellas Barcelona-El Prat Airport (LEBL)
Time Latitude Longitude Altitude Speed Heading
2026-05-07 00:31 38.76465 -9.13736 348 ft 0 kts 168°
2026-05-07 00:49 38.76488 -9.13742 359 ft 4 kts 168°
2026-05-07 00:49 38.76514 -9.13746 347 ft 4 kts 190°
2026-05-07 00:49 38.76536 -9.13733 356 ft 4 kts 236°
2026-05-07 00:50 38.76542 -9.13718 355 ft 0 kts 258°
2026-05-07 00:52 38.76542 -9.13722 355 ft 3 kts 258°
2026-05-07 00:53 38.76536 -9.13755 351 ft 3 kts 258°
2026-05-07 00:53 38.76532 -9.13781 354 ft 2 kts 258°
2026-05-07 00:53 38.76526 -9.13821 349 ft 8 kts 258°
2026-05-07 00:53 38.76517 -9.13901 347 ft 8 kts 283°
2026-05-07 00:54 38.76559 -9.13945 355 ft 8 kts 314°
2026-05-07 00:54 38.76555 -9.14013 355 ft 8 kts 238°
2026-05-07 00:54 38.76527 -9.14059 352 ft 5 kts 229°
2026-05-07 00:54 38.76508 -9.14090 352 ft 4 kts 236°
2026-05-07 00:55 38.76495 -9.14138 352 ft 12 kts 264°
2026-05-07 00:55 38.76535 -9.14299 336 ft 19 kts 294°
2026-05-07 00:55 38.76583 -9.14405 332 ft 12 kts 333°
2026-05-07 00:55 38.76690 -9.14363 336 ft 32 kts 22°
2026-05-07 00:56 38.77110 -9.14138 357 ft 96 kts 23°
2026-05-07 00:56 38.77890 -9.13725 366 ft 145 kts 22°
2026-05-07 00:56 38.78947 -9.13156 437 ft 178 kts 23°
2026-05-07 00:56 38.79694 -9.12733 810 ft 178 kts 21°
2026-05-07 00:57 38.80827 -9.12115 1532 ft 175 kts 19°
2026-05-07 00:57 38.81911 -9.11444 2183 ft 174 kts 28°
2026-05-07 00:57 38.82978 -9.10616 2567 ft 185 kts 27°
2026-05-07 00:57 38.84139 -9.09716 2764 ft 206 kts 28°
2026-05-07 00:58 38.85445 -9.08717 2927 ft 232 kts 29°
2026-05-07 00:58 38.86894 -9.07606 3364 ft 250 kts 29°
2026-05-07 00:58 38.88410 -9.06428 4031 ft 259 kts 31°
2026-05-07 00:58 38.89753 -9.04828 4696 ft 270 kts 53°
2026-05-07 00:59 38.91485 -9.00422 6173 ft 281 kts 65°
2026-05-07 00:59 38.92334 -8.98143 6934 ft 284 kts 65°
2026-05-07 00:59 38.93194 -8.95843 7708 ft 287 kts 65°
2026-05-07 01:00 38.94063 -8.93523 8478 ft 289 kts 65°
2026-05-07 01:00 38.94937 -8.91186 9254 ft 292 kts 65°
2026-05-07 01:00 38.95819 -8.88826 10011 ft 294 kts 66°
2026-05-07 01:00 38.96725 -8.86391 10333 ft 313 kts 66°
2026-05-07 01:01 38.97695 -8.83774 10473 ft 336 kts 65°
2026-05-07 01:01 38.98727 -8.80995 10806 ft 350 kts 65°
2026-05-07 01:01 38.99786 -8.78149 11408 ft 355 kts 65°
2026-05-07 01:01 39.00856 -8.75270 12062 ft 359 kts 65°
2026-05-07 01:02 39.01939 -8.72350 12706 ft 364 kts 65°
2026-05-07 01:02 39.03033 -8.69400 13375 ft 367 kts 65°
2026-05-07 01:02 39.04134 -8.66422 14008 ft 371 kts 65°
2026-05-07 01:02 39.05246 -8.63413 14598 ft 374 kts 65°
2026-05-07 01:03 39.06369 -8.60372 15191 ft 378 kts 65°
2026-05-07 01:03 39.07502 -8.57299 15772 ft 382 kts 65°
2026-05-07 01:03 39.08644 -8.54198 16348 ft 385 kts 65°
2026-05-07 01:03 39.09797 -8.51068 16915 ft 389 kts 65°
2026-05-07 01:04 39.10961 -8.47906 17465 ft 393 kts 65°
2026-05-07 01:04 39.12133 -8.44715 18027 ft 396 kts 65°
2026-05-07 01:04 39.13316 -8.41491 18528 ft 400 kts 65°
2026-05-07 01:04 39.14511 -8.38237 19015 ft 403 kts 65°
2026-05-07 01:05 39.15712 -8.34964 19505 ft 406 kts 65°
2026-05-07 01:05 39.16921 -8.31667 19952 ft 409 kts 65°
2026-05-07 01:05 39.18124 -8.28378 20419 ft 412 kts 65°
2026-05-07 01:05 39.19347 -8.25023 20888 ft 415 kts 66°
2026-05-07 01:06 39.20579 -8.21644 21373 ft 418 kts 66°
2026-05-07 01:06 39.21817 -8.18245 21840 ft 421 kts 66°
2026-05-07 01:06 39.23064 -8.14815 22310 ft 424 kts 66°
2026-05-07 01:06 39.24318 -8.11362 22770 ft 426 kts 66°
2026-05-07 01:07 39.25578 -8.07887 23214 ft 429 kts 66°
2026-05-07 01:07 39.26844 -8.04390 23630 ft 432 kts 66°
2026-05-07 01:07 39.28107 -8.00855 23984 ft 435 kts 68°
2026-05-07 01:07 39.29272 -7.97242 24349 ft 437 kts 70°
2026-05-07 01:08 39.30352 -7.93560 24681 ft 440 kts 72°
2026-05-07 01:08 39.31382 -7.89832 25055 ft 442 kts 72°
2026-05-07 01:08 39.32401 -7.86076 25423 ft 445 kts 72°
2026-05-07 01:08 39.33435 -7.82301 25770 ft 447 kts 72°
2026-05-07 01:09 39.34496 -7.78506 26108 ft 450 kts 72°
2026-05-07 01:09 39.35581 -7.74698 26444 ft 453 kts 72°
2026-05-07 01:09 39.36683 -7.70869 26771 ft 456 kts 71°
2026-05-07 01:09 39.37797 -7.67019 27099 ft 459 kts 71°
2026-05-07 01:10 39.39082 -7.63230 27407 ft 463 kts 65°
2026-05-07 01:10 39.40536 -7.59500 27698 ft 466 kts 65°
2026-05-07 01:10 39.41996 -7.55735 27932 ft 470 kts 66°
2026-05-07 01:10 39.43461 -7.51937 28205 ft 473 kts 66°
2026-05-07 01:11 39.44931 -7.48108 28492 ft 476 kts 66°
2026-05-07 01:11 39.46409 -7.44258 28770 ft 479 kts 66°
2026-05-07 01:11 39.47895 -7.40393 29039 ft 482 kts 66°
2026-05-07 01:11 39.49389 -7.36495 29311 ft 484 kts 66°
2026-05-07 01:12 39.50885 -7.32579 29598 ft 487 kts 66°
2026-05-07 01:12 39.52387 -7.28641 29871 ft 489 kts 66°
2026-05-07 01:12 39.53895 -7.24685 30162 ft 490 kts 66°
2026-05-07 01:12 39.55406 -7.20728 30485 ft 490 kts 66°
2026-05-07 01:13 39.56917 -7.16769 30799 ft 490 kts 66°
2026-05-07 01:13 39.58424 -7.12807 31138 ft 490 kts 66°
2026-05-07 01:13 39.59927 -7.08853 31515 ft 488 kts 66°
2026-05-07 01:13 39.61424 -7.04906 31892 ft 487 kts 66°
2026-05-07 01:14 39.62913 -7.00968 32263 ft 486 kts 66°
2026-05-07 01:14 39.64397 -6.97036 32624 ft 485 kts 66°
2026-05-07 01:14 39.65876 -6.93113 32983 ft 484 kts 66°
2026-05-07 01:14 39.67351 -6.89197 33342 ft 483 kts 66°
2026-05-07 01:15 39.68804 -6.85335 33685 ft 482 kts 65°
2026-05-07 01:15 39.70277 -6.81425 33870 ft 482 kts 66°
2026-05-07 01:15 39.71739 -6.77541 33898 ft 476 kts 66°
2026-05-07 01:16 39.74629 -6.69836 33897 ft 473 kts 66°
2026-05-07 01:16 39.77501 -6.62155 33897 ft 472 kts 66°
2026-05-07 01:17 39.80365 -6.54469 33897 ft 472 kts 66°
2026-05-07 01:17 39.83218 -6.46774 33888 ft 472 kts 66°
2026-05-07 01:18 39.86067 -6.39066 33892 ft 473 kts 66°
2026-05-07 01:18 39.88776 -6.31274 33880 ft 472 kts 69°
2026-05-07 01:19 39.91343 -6.23399 33876 ft 472 kts 69°
2026-05-07 01:19 39.93900 -6.15520 33879 ft 472 kts 69°
2026-05-07 01:20 39.96498 -6.07657 33876 ft 472 kts 69°
2026-05-07 01:20 39.99106 -5.99792 33881 ft 472 kts 69°
2026-05-07 01:21 40.01700 -5.91920 33881 ft 472 kts 69°
2026-05-07 01:21 40.04290 -5.84039 33882 ft 473 kts 69°
2026-05-07 01:22 40.06868 -5.76152 33889 ft 472 kts 69°
2026-05-07 01:22 40.09443 -5.68260 33876 ft 472 kts 69°
2026-05-07 01:23 40.12012 -5.60364 33901 ft 472 kts 69°
2026-05-07 01:23 40.14574 -5.52469 33899 ft 472 kts 69°
2026-05-07 01:24 40.17131 -5.44555 33906 ft 472 kts 69°
2026-05-07 01:24 40.19464 -5.36529 33907 ft 472 kts 73°
2026-05-07 01:25 40.21543 -5.28391 33898 ft 472 kts 74°
2026-05-07 01:25 40.23613 -5.20240 33910 ft 472 kts 73°
2026-05-07 01:26 40.25745 -5.12117 33909 ft 472 kts 73°
2026-05-07 01:26 40.27901 -5.03998 33925 ft 472 kts 73°
2026-05-07 01:27 40.30031 -4.95932 33934 ft 472 kts 73°
2026-05-07 01:27 40.32160 -4.87805 33909 ft 472 kts 73°
2026-05-07 01:28 40.34277 -4.79666 33912 ft 472 kts 74°
2026-05-07 01:28 40.36386 -4.71520 33910 ft 472 kts 73°
2026-05-07 01:29 40.38493 -4.63371 33941 ft 472 kts 74°
2026-05-07 01:29 40.40599 -4.55207 33918 ft 472 kts 74°
2026-05-07 01:30 40.42700 -4.47041 33920 ft 473 kts 74°
2026-05-07 01:30 40.44800 -4.38859 33934 ft 473 kts 74°
2026-05-07 01:31 40.46893 -4.30676 33927 ft 473 kts 74°
2026-05-07 01:31 40.48979 -4.22484 33931 ft 473 kts 74°
2026-05-07 01:32 40.51055 -4.14292 33928 ft 473 kts 74°
2026-05-07 01:32 40.53127 -4.06093 33930 ft 473 kts 74°
2026-05-07 01:33 40.55194 -3.97893 33936 ft 473 kts 74°
2026-05-07 01:33 40.57259 -3.89681 33938 ft 473 kts 74°
2026-05-07 01:34 40.59319 -3.81467 33938 ft 473 kts 74°
2026-05-07 01:34 40.61364 -3.73238 33928 ft 473 kts 74°
2026-05-07 01:35 40.63403 -3.64997 33941 ft 474 kts 74°
2026-05-07 01:35 40.65446 -3.56753 33946 ft 474 kts 74°
2026-05-07 01:36 40.67487 -3.48499 33952 ft 474 kts 74°
2026-05-07 01:36 40.69524 -3.40235 33943 ft 474 kts 74°
2026-05-07 01:37 40.71556 -3.31945 33937 ft 476 kts 74°
2026-05-07 01:37 40.73590 -3.23629 33948 ft 477 kts 74°
2026-05-07 01:38 40.75619 -3.15286 33960 ft 478 kts 74°
2026-05-07 01:38 40.77641 -3.06932 33962 ft 478 kts 75°
2026-05-07 01:39 40.79661 -2.98569 33947 ft 479 kts 74°
2026-05-07 01:39 40.81681 -2.90167 33950 ft 481 kts 75°
2026-05-07 01:40 40.83700 -2.81740 33961 ft 482 kts 75°
2026-05-07 01:40 40.85723 -2.73292 33965 ft 483 kts 75°
2026-05-07 01:41 40.87738 -2.64834 33963 ft 483 kts 74°
2026-05-07 01:41 40.89750 -2.56354 33977 ft 484 kts 74°
2026-05-07 01:42 40.91764 -2.47859 33975 ft 484 kts 74°
2026-05-07 01:42 40.93429 -2.40786 33982 ft 484 kts 74°
2026-05-07 01:43 40.95426 -2.32274 33980 ft 485 kts 74°
2026-05-07 01:43 40.97745 -2.22369 33973 ft 485 kts 74°
2026-05-07 01:44 40.99410 -2.15216 33985 ft 486 kts 74°
2026-05-07 01:44 41.01384 -2.06661 33991 ft 486 kts 74°
2026-05-07 01:45 41.03367 -1.98093 34000 ft 487 kts 74°
2026-05-07 01:45 41.05341 -1.89525 33986 ft 486 kts 73°
2026-05-07 01:46 41.07304 -1.80950 34003 ft 486 kts 74°
2026-05-07 01:46 41.09268 -1.72383 34012 ft 486 kts 74°
2026-05-07 01:47 41.11223 -1.63817 34014 ft 486 kts 74°
2026-05-07 01:47 41.13165 -1.55237 34029 ft 485 kts 74°
2026-05-07 01:48 41.15098 -1.46667 34013 ft 485 kts 73°
2026-05-07 01:48 41.17029 -1.38087 34017 ft 485 kts 73°
2026-05-07 01:49 41.18942 -1.29563 34013 ft 485 kts 73°
2026-05-07 01:49 41.20864 -1.20986 34011 ft 485 kts 73°
2026-05-07 01:50 41.22764 -1.12393 34012 ft 485 kts 73°
2026-05-07 01:50 41.24658 -1.03804 34007 ft 484 kts 73°
2026-05-07 01:51 41.26545 -0.95207 34002 ft 484 kts 73°
2026-05-07 01:51 41.28435 -0.86614 33995 ft 484 kts 73°
2026-05-07 01:52 41.30326 -0.78023 33991 ft 484 kts 73°
2026-05-07 01:52 41.32215 -0.69424 33986 ft 484 kts 73°
2026-05-07 01:53 41.34091 -0.60810 33984 ft 485 kts 75°
2026-05-07 01:53 41.34911 -0.51950 34002 ft 483 kts 93°
2026-05-07 01:54 41.34088 -0.43022 33646 ft 494 kts 101°
2026-05-07 01:54 41.33575 -0.38511 33111 ft 492 kts 101°
2026-05-07 01:54 41.33065 -0.34019 32477 ft 490 kts 101°
2026-05-07 01:54 41.32558 -0.29546 31865 ft 487 kts 100°
2026-05-07 01:55 41.32056 -0.25096 31216 ft 486 kts 100°
2026-05-07 01:55 41.31555 -0.20658 30596 ft 484 kts 100°
2026-05-07 01:55 41.31056 -0.16237 29963 ft 483 kts 100°
2026-05-07 01:55 41.30556 -0.11837 29309 ft 479 kts 100°
2026-05-07 01:56 41.30056 -0.07484 28717 ft 474 kts 100°
2026-05-07 01:56 41.29557 -0.03170 28119 ft 469 kts 100°
2026-05-07 01:56 41.29060 0.01097 27531 ft 465 kts 101°
2026-05-07 01:56 41.28565 0.05322 26949 ft 461 kts 101°
2026-05-07 01:57 41.28072 0.09508 26384 ft 457 kts 101°
2026-05-07 01:57 41.27583 0.13663 25815 ft 453 kts 101°
2026-05-07 01:57 41.27100 0.17784 25268 ft 449 kts 101°
2026-05-07 01:57 41.26636 0.21866 24841 ft 443 kts 99°
2026-05-07 01:58 41.26260 0.25867 24602 ft 432 kts 98°
2026-05-07 01:58 41.25949 0.29812 24149 ft 427 kts 97°
2026-05-07 01:58 41.25670 0.33724 23671 ft 424 kts 97°
2026-05-07 01:58 41.25394 0.37606 23116 ft 420 kts 97°
2026-05-07 01:59 41.25108 0.41458 22557 ft 417 kts 97°
2026-05-07 01:59 41.24808 0.45268 22015 ft 413 kts 98°
2026-05-07 01:59 41.24500 0.49044 21489 ft 409 kts 98°
2026-05-07 01:59 41.24185 0.52788 21006 ft 405 kts 98°
2026-05-07 02:00 41.23870 0.56484 20499 ft 402 kts 98°
2026-05-07 02:00 41.23555 0.60163 20015 ft 399 kts 98°
2026-05-07 02:00 41.23244 0.63809 19495 ft 397 kts 98°
2026-05-07 02:00 41.22936 0.67425 19095 ft 392 kts 98°
2026-05-07 02:01 41.22631 0.71013 18634 ft 389 kts 98°
2026-05-07 02:01 41.22331 0.74570 18133 ft 387 kts 98°
2026-05-07 02:01 41.22034 0.78094 17703 ft 382 kts 97°
2026-05-07 02:01 41.21737 0.81592 17236 ft 379 kts 97°
2026-05-07 02:02 41.21440 0.85050 16777 ft 376 kts 98°
2026-05-07 02:02 41.21145 0.88480 16360 ft 371 kts 98°
2026-05-07 02:02 41.20851 0.91876 15913 ft 369 kts 98°
2026-05-07 02:02 41.20564 0.95194 15503 ft 364 kts 98°
2026-05-07 02:03 41.20276 0.98518 15086 ft 360 kts 98°
2026-05-07 02:03 41.19984 1.01850 14668 ft 357 kts 98°
2026-05-07 02:03 41.19696 1.05112 14259 ft 354 kts 98°
2026-05-07 02:03 41.19409 1.08346 13855 ft 351 kts 98°
2026-05-07 02:04 41.19123 1.11557 13418 ft 348 kts 98°
2026-05-07 02:04 41.18842 1.14735 13019 ft 345 kts 97°
2026-05-07 02:04 41.18563 1.17883 12626 ft 343 kts 97°
2026-05-07 02:04 41.18288 1.20977 12238 ft 341 kts 97°
2026-05-07 02:05 41.18010 1.24088 11846 ft 339 kts 97°
2026-05-07 02:05 41.17733 1.27188 11457 ft 337 kts 97°
2026-05-07 02:05 41.17456 1.30266 11071 ft 335 kts 97°
2026-05-07 02:05 41.17180 1.33331 10694 ft 333 kts 97°
2026-05-07 02:06 41.16907 1.36372 10339 ft 330 kts 97°
2026-05-07 02:06 41.16638 1.39339 10211 ft 317 kts 97°
2026-05-07 02:06 41.16377 1.42193 10078 ft 306 kts 97°
2026-05-07 02:06 41.16123 1.44972 9853 ft 299 kts 97°
2026-05-07 02:07 41.15874 1.47709 9580 ft 298 kts 97°
2026-05-07 02:07 41.15379 1.53139 8815 ft 294 kts 97°
2026-05-07 02:07 41.15129 1.55830 8433 ft 293 kts 97°
2026-05-07 02:08 41.14878 1.58507 8053 ft 292 kts 97°
2026-05-07 02:08 41.14630 1.61173 7673 ft 290 kts 97°
2026-05-07 02:08 41.14385 1.63820 7299 ft 288 kts 97°
2026-05-07 02:08 41.14140 1.66454 6922 ft 287 kts 97°
2026-05-07 02:09 41.13895 1.69073 6545 ft 285 kts 97°
2026-05-07 02:09 41.13650 1.71676 6159 ft 284 kts 98°
2026-05-07 02:09 41.13407 1.74266 5782 ft 281 kts 98°
2026-05-07 02:09 41.13167 1.76827 5418 ft 279 kts 98°
2026-05-07 02:10 41.12928 1.79365 5064 ft 276 kts 98°
2026-05-07 02:10 41.12690 1.81882 4705 ft 274 kts 98°
2026-05-07 02:10 41.12452 1.84381 4343 ft 272 kts 98°
2026-05-07 02:10 41.12215 1.86864 3992 ft 270 kts 98°
2026-05-07 02:11 41.11986 1.89280 3893 ft 257 kts 97°
2026-05-07 02:11 41.11769 1.91575 3815 ft 245 kts 97°
2026-05-07 02:11 41.11560 1.93766 3698 ft 235 kts 97°
2026-05-07 02:11 41.11369 1.95893 3617 ft 230 kts 92°
2026-05-07 02:12 41.11554 1.97995 3564 ft 230 kts 72°
2026-05-07 02:12 41.12269 1.99887 3409 ft 231 kts 52°
2026-05-07 02:12 41.13419 2.01316 3208 ft 223 kts 32°
2026-05-07 02:12 41.14821 2.02136 2917 ft 218 kts 19°
2026-05-07 02:13 41.16243 2.02779 2624 ft 214 kts 19°
2026-05-07 02:13 41.17635 2.03410 2359 ft 207 kts 20°
2026-05-07 02:13 41.18958 2.04011 2080 ft 195 kts 19°
2026-05-07 02:13 41.20203 2.04577 1824 ft 183 kts 21°
2026-05-07 02:14 41.21336 2.05092 1593 ft 163 kts 21°
2026-05-07 02:14 41.22350 2.05552 1383 ft 146 kts 21°
2026-05-07 02:14 41.23286 2.05979 1186 ft 139 kts 21°
2026-05-07 02:14 41.24203 2.06397 1006 ft 139 kts 22°
2026-05-07 02:15 41.25104 2.06809 831 ft 137 kts 20°
2026-05-07 02:15 41.25998 2.07218 661 ft 134 kts 21°
2026-05-07 02:15 41.26892 2.07622 469 ft 136 kts 20°
2026-05-07 02:15 41.27791 2.08032 271 ft 136 kts 19°
2026-05-07 02:16 41.28688 2.08445 98 ft 136 kts 19°
2026-05-07 02:16 41.29551 2.08837 20 ft 116 kts 19°
2026-05-07 02:16 41.30063 2.09073 19 ft 51 kts 19°
2026-05-07 02:16 41.30322 2.09187 18 ft 34 kts 19°
2026-05-07 02:17 41.30498 2.09268 21 ft 17 kts 18°
2026-05-07 02:17 41.30603 2.09248 22 ft 16 kts 327°
2026-05-07 02:17 41.30680 2.09143 18 ft 14 kts 289°
2026-05-07 02:17 41.30634 2.09066 18 ft 11 kts 202°
2026-05-07 02:18 41.30563 2.09033 18 ft 11 kts 197°
2026-05-07 02:18 41.30493 2.09004 18 ft 12 kts 198°
2026-05-07 02:18 41.30401 2.08929 18 ft 19 kts 234°
2026-05-07 02:18 41.30345 2.08774 17 ft 18 kts 245°
2026-05-07 02:19 41.30293 2.08625 19 ft 17 kts 245°
2026-05-07 02:19 41.30245 2.08482 18 ft 16 kts 246°
2026-05-07 02:19 41.30200 2.08348 18 ft 15 kts 246°
2026-05-07 02:19 41.30157 2.08224 18 ft 15 kts 245°
2026-05-07 02:20 41.30114 2.08100 17 ft 14 kts 245°
2026-05-07 02:20 41.30073 2.08004 17 ft 11 kts 219°
2026-05-07 02:20 41.29999 2.08017 19 ft 15 kts 156°
2026-05-07 02:20 41.29885 2.08072 18 ft 20 kts 160°
2026-05-07 02:21 41.29736 2.08155 18 ft 24 kts 155°
2026-05-07 02:21 41.29641 2.08173 17 ft 13 kts 214°
2026-05-07 02:21 41.29591 2.08056 16 ft 20 kts 245°
2026-05-07 02:21 41.29528 2.07874 17 ft 13 kts 244°
2026-05-07 02:22 41.29475 2.07819 16 ft 10 kts 179°
2026-05-07 02:22 41.29394 2.07861 16 ft 15 kts 156°
2026-05-07 02:22 41.29305 2.07914 21 ft 12 kts 155°
2026-05-07 02:22 41.29241 2.07965 19 ft 10 kts 142°
2026-05-07 02:23 41.29189 2.08004 19 ft 6 kts 155°
2026-05-07 02:23 41.29178 2.08010 19 ft 0 kts 155°
2026-05-07 02:23 41.29176 2.08011 19 ft 0 kts 155°